sat.trackr.live / text

‹ back to catalog

STARLINK-37466

NORAD 69038 · 2026-101P

PAYLOAD ACTIVE UNKNOWN

§ Identity

Operator
Country
US
Launch date
2026-05-06
Launch site
AFWTR
Launch vehicle
Mass (kg)
RCS (m²)

Purposes: comms

External: N2YO · Heavens-Above · Gunter

§ Orbital elements

Epoch: 2026-05-25T04:00:03.998880Z

Period
92.14 min
Inclination
97.2852°
Eccentricity
0.0001631
Mean motion
15.62920466 rev/d
Perigee alt
378.1 km
Apogee alt
380.3 km
Semi-major
6,757.4 km
B*
-2.3963e-2
RAAN
359.9109°
Arg perigee
91.1563°
Mean anomaly
352.7616°
Rev number
425

§ Raw data

STARLINK-374661 69038U 26101P   26145.16671295 -.01913619  00000+0 -23963-1 0  99962 69038  97.2852 359.9109 0001631  91.1563 352.7616 15.62920466  4255

JSON: /api/v1/satellites/69038 · /tle

For live sub-satellite position, see the globe view (requires WebGL).

§ Visibility from observer

Set your observer location to see the next 7 days of passes ≥ 10°. The values pass through the URL so the page stays shareable.

No JS? Fill the form by hand. The geolocation button needs JavaScript.